This is the latest recevied weather packets stored in our database for station/object KF6FPU-15. If no packets are shown the sender has not sent any weather packets the latest 10 day(s).
| Time | Temp. | Humidity | Pressure | Rain* | Wind** | Luminosity | Snow |
|---|---|---|---|---|---|---|---|
| 1777876308 | 27.78° C | 20% | 1014 hPa | - | - | - | - |
| 1777875707 | 27.78° C | 20% | 1014 hPa | - | - | - | - |
| 1777875107 | 27.78° C | 19% | 1014.1 hPa | - | - | - | - |
| 1777874508 | 27.78° C | 20% | 1014 hPa | - | - | - | - |
| 1777873907 | 27.78° C | 19% | 1014 hPa | - | - | - | - |
| 1777873308 | 27.78° C | 19% | 1014 hPa | - | - | - | - |
| 1777872707 | 28.33° C | 19% | 1013.9 hPa | - | - | - | - |
| 1777872108 | 28.33° C | 20% | 1013.7 hPa | - | - | - | - |
| 1777871508 | 28.33° C | 20% | 1013.7 hPa | - | - | - | - |
| 1777870308 | 28.33° C | 19% | 1013.5 hPa | - | - | - | - |
| 1777869708 | 28.33° C | 19% | 1013.3 hPa | - | - | - | - |
| 1777869108 | 27.78° C | 19% | 1013.1 hPa | - | - | - | - |
| 1777868508 | 28.89° C | 19% | 1012.9 hPa | - | - | - | - |
| 1777867908 | 28.89° C | 19% | 1012.9 hPa | - | - | - | - |
| 1777867308 | 28.89° C | 19% | 1012.8 hPa | - | - | - | - |
| 1777866708 | 28.89° C | 19% | 1012.8 hPa | - | - | - | - |
| 1777866108 | 28.89° C | 19% | 1012.7 hPa | - | - | - | - |
| 1777865508 | 28.89° C | 19% | 1012.7 hPa | - | - | - | - |
| 1777864908 | 28.89° C | 19% | 1012.6 hPa | - | - | - | - |
| 1777863708 | 29.44° C | 19% | 1012.4 hPa | - | - | - | - |
| 1777863108 | 29.44° C | 19% | 1012.3 hPa | - | - | - | - |
| 1777862508 | 29.44° C | 19% | 1012.2 hPa | - | - | - | - |
| 1777861908 | 29.44° C | 19% | 1012.1 hPa | - | - | - | - |
| 1777861308 | 28.89° C | 19% | 1011.8 hPa | - | - | - | - |
| 1777860708 | 29.44° C | 19% | 1011.8 hPa | - | - | - | - |
* Rain since midnight (hover to see other rain measurements)
** Current wind speed in m/s (hover to see current wind gust speed)